Location: Clayton (historical)
(34.0300°N, 118.0259°W)
Time: 00:42:28
(UTC+00:00)

Envisat - Pass Details

Date: 24 January 2021
Orbit: 764 x 766 km, 98.1° (Epoch: 06 March)

Event Time Altitude Azimuth Distance (km) Brightness Sun altitude
Rises 13:34:46 0° 12° (NNE) 3,236 6.2 -16.5°
Reaches altitude 10° 13:37:05 10° 12° (NNE) 2,306 5.5 -16.0°
Maximum altitude 13:42:11 89° 290° (WNW) 769 3.0 -15.0°
Drops below altitude 10° 13:47:14 10° 194° (SSW) 2,291 5.5 -13.9°
Sets 13:49:32 0° 194° (SSW) 3,213 6.2 -13.5°
